Location: Observatory
(52.1446°N, 0.4624°W)
Time: 16:56:17
(UTC+01:00)

ISS - Pass Details

Date: 28 May 2020
Orbit: 417 x 420 km, 51.6° (Epoch: 26 May)

Event Time Altitude Azimuth Distance (km) Brightness Sun altitude
Rises 23:44:18 0° 276° (W) 2,367 0.4 -14.4°
Reaches altitude 10° 23:47:55 10° 236° (SW) 1,498 -1.1 -14.6°
Enters shadow 23:48:30 11° 226° (SW) 1,465 -1.3 -14.6°
